Location: Olmeneta
(45.2333°N, 10.0167°E)
Time: 14:02:21
(UTC+00:00)

Cosmos 1515 - Visible Passes

Search period start: 23 June 2021 00:00
Search period end: 03 July 2021 00:00
Orbit: 506 x 513 km, 82.5° (Epoch: 22 June)

Date Brightness Start Highest point End Pass type
(mag) Time Alt. Az. Time Alt. Az. Time Alt. Az.
23 Jun 6.6 02:24:34 10° NNE 02:27:13 18° ENE 02:29:51 10° ESE visible
24 Jun 6.7 02:08:01 10° NE 02:10:11 14° ENE 02:12:19 10° ESE visible
25 Jun 6.9 01:51:45 10° NE 01:53:08 12° ENE 01:54:29 10° E visible
27 Jun 3.7 02:51:25 10° N 02:55:15 85° E 02:59:02 10° S visible
28 Jun 4.1 02:34:30 10° N 02:38:17 65° E 02:42:02 10° SSE visible
29 Jun 4.6 02:17:35 10° N 02:21:19 50° ENE 02:25:00 10° SSE visible
30 Jun 5.1 02:00:44 10° N 02:04:20 39° ENE 02:07:53 10° SSE visible
01 Jul 5.5 01:43:55 10° NNE 01:47:20 30° ENE 01:50:43 10° SE visible
02 Jul 5.8 01:27:09 10° NNE 01:30:19 24° ENE 01:33:28 10° SE visible
